Theta_e
299 298 298 299 299 298 298 298 298 298 299 299 299 300 302 301 310 312 309 309 309 309 310 312 314 314 313 312 314 316 316 316 316 316 317 316 317 318 320 321 322 323 322 330 335
299 299 299 299 298 299 298 298 298 299 299 299 299 302 305 305 312 312 309 309 309 309 311 313 313 314 314 314 313 314 317 317 313 313 313 314 313 314 315 319 319 321 323 327 335
299 299 299 299 298 298 298 298 298 298 299 299 300 304 306 308 315 312 309 309 309 310 312 313 314 315 316 315 314 315 314 314 313 314 313 313 313 313 313 312 316 317 319 325 326
299 299 299 298 298 298 298 298 298 298 299 299 301 306 306 312 316 311 309 309 308 310 312 313 314 315 316 316 315 314 315 315 314 314 314 314 314 313 313 313 313 312 313 320 323
299 299 299 299 299 299 298 299 298 298 299 299 302 306 308 313 312 309 308 308 310 311 312 313 313 314 316 314 314 314 314 314 314 314 314 314 314 313 314 313 313 313 312 313 320
300 299 299 299 299 299 299 299 298 298 299 300 304 307 312 314 308 309 308 307 309 311 312 312 313 313 315 314 315 314 314 314 314 315 315 315 314 314 314 314 314 313 313 312 313
301 301 299 299 299 299 299 299 298 299 299 301 305 308 313 312 309 309 309 307 309 309 312 312 312 314 313 315 314 314 314 314 316 315 314 314 314 314 315 315 314 313 313 313 312
302 301 300 299 299 299 299 298 298 299 300 303 305 309 313 308 309 310 309 311 310 310 309 310 312 312 313 313 314 314 315 316 315 315 315 314 315 315 314 314 314 314 315 318 322
302 302 300 298 299 299 298 298 299 299 302 305 307 311 312 308 310 309 308 311 310 310 310 311 313 314 314 315 317 316 315 315 315 314 314 314 315 314 313 314 313 314 315 315 319
302 302 301 298 299 299 298 299 299 301 303 306 306 311 309 310 309 309 309 309 312 312 314 314 314 315 315 315 316 314 315 315 316 315 313 314 313 313 313 312 311 311 312 313 316
303 302 301 298 299 298 298 300 306 308 307 308 309 309 308 309 309 311 310 311 312 313 313 313 314 316 312 313 313 313 315 315 315 314 313 315 316 314 311 310 310 308 310 311 315
303 302 302 299 299 298 298 305 300 303 307 303 306 307 307 307 311 311 310 312 311 313 311 313 315 311 311 312 314 315 315 315 314 314 314 315 312 311 309 309 309 308 307 310 311
305 304 302 299 299 298 298 299 299 300 309 307 308 308 309 308 310 311 310 312 312 312 312 311 312 310 310 313 315 314 312 312 314 314 313 313 314 312 308 308 306 306 306 309 309
303 304 300 299 298 298 298 297 300 299 314 308 308 308 308 308 311 309 309 311 312 311 311 311 310 309 310 312 312 314 314 313 314 316 319 313 318 311 311 308 307 303 304 306 307
303 304 300 298 301 299 298 297 300 304 316 307 307 306 307 309 309 310 308 311 312 312 310 312 309 309 311 311 310 312 312 313 315 318 317 314 316 312 309 309 307 306 304 307 306
305 304 299 299 298 298 298 298 301 310 312 308 307 308 308 309 309 309 309 309 310 310 310 310 309 309 310 309 309 311 312 314 315 317 320 311 313 312 310 308 306 307 306 309 308
305 304 299 299 302 298 297 302 309 310 304 308 308 307 308 309 309 309 310 311 312 312 313 311 310 309 308 310 312 311 312 316 320 316 314 311 312 311 309 307 308 308 306 307 309
304 303 300 299 298 298 299 304 303 310 306 306 307 307 308 308 309 309 310 311 309 309 310 311 311 310 309 310 310 310 312 312 316 315 314 310 310 310 308 308 306 305 305 305 306
304 303 300 299 298 297 303 307 310 309 305 306 306 307 310 308 308 308 309 309 309 309 311 311 311 309 309 308 309 311 311 310 313 309 312 311 311 309 308 307 306 305 303 303 302
303 303 300 299 298 298 303 305 304 301 305 306 307 308 310 308 308 308 309 307 308 308 308 310 309 308 308 309 309 310 309 311 309 311 316 311 310 309 309 307 305 303 302 301 301
303 301 302 299 298 301 303 303 302 299 304 306 307 306 306 308 308 308 308 307 307 307 307 309 308 309 309 309 309 310 312 311 310 310 314 315 309 307 307 304 302 302 301 300 300
303 301 300 299 302 299 302 299 297 300 302 305 305 306 306 306 307 308 309 307 306 307 308 308 308 306 309 306 307 309 310 311 310 311 309 310 309 307 303 302 302 301 300 300 300
302 299 299 299 301 300 298 297 298 301 303 304 304 305 305 306 306 307 307 306 306 307 308 308 304 302 307 308 307 309 310 310 310 308 311 312 310 305 303 302 301 301 300 300 300
301 300 299 298 300 302 299 299 298 300 302 303 304 304 305 305 305 306 306 305 305 306 306 306 307 306 308 307 306 308 308 309 309 308 310 308 308 305 302 300 301 301 301 300 300
301 301 299 298 298 299 300 301 300 298 300 302 303 304 304 304 305 305 305 305 304 305 306 306 306 305 305 305 305 304 304 305 307 308 308 308 308 307 303 300 301 301 300 300 299
301 300 299 299 300 299 300 301 300 301 299 300 301 303 303 304 305 304 304 304 305 305 305 305 305 301 298 304 304 303 302 302 303 305 307 308 306 306 305 303 301 301 300 299 299
302 302 302 301 300 299 300 301 300 301 300 301 301 302 302 303 303 303 303 304 304 304 304 302 299 296 297 297 295 295 296 300 303 304 307 308 307 305 303 302 301 301 300 299 298
Wind_Speed
5 6 6 7 7 8 8 9 10 11 11 11 11 10 9 7 8 9 9 13 11 12 13 9 7 10 4 2 2 2 3 4 6 7 10 25 14 22 17 16 9 18 25 5 5
5 6 7 7 8 9 9 9 9 10 11 11 11 9 8 6 10 8 13 11 9 10 12 15 15 12 1 1 1 3 3 2 7 9 10 16 19 23 22 22 20 17 20 9 4
6 6 6 7 7 7 8 9 10 10 10 10 8 7 6 5 4 4 11 8 8 8 13 11 10 5 4 2 4 5 3 11 10 14 15 15 18 21 20 13 21 24 27 7 8
6 7 6 6 7 8 8 9 10 10 10 9 6 6 6 6 2 7 9 7 7 10 10 10 12 6 4 5 6 5 6 14 13 16 15 13 21 20 23 24 28 34 33 21 12
6 7 7 6 6 7 8 9 10 9 10 7 5 5 2 4 3 8 7 6 9 10 11 13 13 9 7 7 11 7 9 16 20 22 20 19 19 17 25 28 28 31 33 30 22
5 6 7 7 7 8 8 9 9 9 8 5 4 4 5 1 2 6 5 4 6 8 8 9 8 7 5 7 4 13 17 19 14 15 15 13 12 15 23 29 28 29 28 33 30
5 6 7 7 7 8 8 9 9 8 4 3 2 3 4 2 3 6 4 5 5 6 5 6 5 7 9 7 13 13 7 13 11 15 9 7 6 4 20 24 20 20 25 29 27
6 6 7 7 7 8 9 9 9 5 3 3 2 5 1 2 2 5 4 5 7 5 5 4 4 3 1 9 6 4 4 8 13 13 10 14 7 7 22 22 19 22 20 17 14
8 6 7 7 7 8 8 8 5 3 3 1 2 3 2 1 2 5 2 2 6 5 5 3 3 3 3 3 1 2 6 13 14 11 8 6 11 13 23 18 19 22 23 24 23
9 7 7 7 7 7 7 5 4 2 2 4 3 1 2 1 5 3 3 4 1 4 3 0 2 3 2 5 4 9 6 8 13 10 6 7 10 7 16 18 22 22 18 21 18
9 7 7 6 6 6 5 2 3 3 2 2 1 1 1 4 0 3 6 3 2 4 3 4 2 2 5 5 3 8 7 9 12 7 4 11 7 9 13 17 17 17 21 19 13
10 7 7 6 5 3 2 1 2 2 2 2 3 0 2 2 1 1 6 5 3 7 0 3 3 6 3 5 6 3 7 6 10 11 2 6 6 8 14 16 20 18 18 18 18
11 8 7 5 4 2 1 0 1 1 3 2 2 1 2 2 2 3 4 1 7 7 4 4 4 3 5 7 4 5 3 4 6 5 1 6 1 5 6 11 19 20 22 20 23
14 9 6 4 3 1 1 1 0 1 1 4 3 1 1 1 1 2 2 1 3 5 6 6 3 2 6 8 6 5 1 6 5 2 2 3 2 3 6 8 10 17 23 24 23
10 10 6 6 2 2 1 1 1 2 2 1 3 2 1 1 1 1 2 2 4 5 3 1 3 5 4 3 5 7 9 11 1 2 3 2 2 3 8 8 15 13 17 18 22
11 10 8 7 6 3 2 1 1 3 4 2 2 3 4 3 4 1 2 0 3 4 6 11 2 2 4 9 8 10 11 6 4 3 2 5 0 3 9 9 11 18 19 16 19
12 11 10 9 6 6 3 2 3 3 2 3 3 4 2 2 3 0 1 2 2 3 2 4 8 3 1 8 4 8 8 1 2 2 1 6 5 2 8 9 9 13 20 23 21
13 13 12 11 7 7 6 2 2 1 4 0 2 3 2 1 2 1 2 2 3 4 3 3 2 1 4 2 3 4 4 2 2 3 3 7 4 4 2 6 10 14 19 20 17
15 15 13 12 10 10 4 1 4 4 5 7 2 3 2 2 1 2 1 5 4 5 4 4 2 4 1 2 3 4 4 4 4 2 1 2 3 3 5 7 14 15 15 16 18
20 14 12 13 12 11 2 4 2 2 2 4 4 5 4 3 4 4 3 3 1 1 3 2 4 2 2 4 4 1 3 1 2 3 2 1 3 3 4 5 8 10 14 16 16
21 9 7 15 14 5 3 5 3 4 3 3 3 4 3 5 3 2 4 4 0 3 3 3 2 1 4 4 3 1 1 2 1 1 2 0 2 4 7 5 6 9 11 12 11
21 3 11 22 5 3 3 5 2 5 5 2 2 2 3 5 5 4 1 4 5 2 2 4 2 3 3 5 1 1 2 3 1 1 1 2 2 6 8 9 10 9 7 8 9
20 6 19 24 4 3 2 2 2 5 4 4 4 5 4 5 2 4 5 4 4 3 2 3 1 3 2 2 4 2 2 3 5 1 3 0 2 6 10 10 9 7 6 7 9
14 4 6 12 8 3 5 4 4 7 2 5 3 4 3 3 2 3 2 4 4 2 2 1 1 3 2 2 2 2 1 2 4 2 2 4 6 7 8 8 11 9 6 6 9
12 6 11 6 10 6 9 8 6 6 5 5 4 7 6 5 6 5 5 5 4 5 4 2 2 2 7 8 3 5 7 7 6 7 3 4 6 12 9 9 14 9 7 7 7
17 9 10 9 11 17 10 9 12 6 8 5 5 11 8 5 6 7 6 5 5 7 5 3 2 2 4 6 5 6 8 9 10 9 8 7 8 9 20 20 17 14 10 7 6
19 16 16 13 9 11 7 7 14 12 12 9 12 6 9 7 10 8 10 6 4 7 6 5 4 3 4 4 4 7 8 14 6 6 8 7 6 10 8 16 21 19 15 11 7
Wind_Direction
338 338 337 334 332 332 336 338 339 342 347 349 353 359 359 13 51 36 9 359 4 9 23 13 359 4 19 15 355 302 284 290 307 325 351 354 359 338 321 302 299 296 299 293 256
322 320 322 324 328 329 335 336 336 338 344 348 352 360 7 26 85 15 5 0 11 16 28 8 358 8 5 27 171 275 264 264 15 355 359 335 340 330 332 322 313 297 283 286 255
312 319 326 325 324 326 330 331 334 339 341 345 353 359 14 64 80 345 352 4 17 21 26 349 347 339 327 336 36 342 252 341 334 340 328 315 310 311 306 300 297 295 294 319 333
312 320 330 327 327 330 332 333 335 337 339 343 354 12 47 57 49 319 348 4 27 27 9 15 10 9 322 0 19 312 294 328 320 324 322 303 300 287 275 275 279 284 289 295 293
310 318 324 329 329 329 331 331 333 334 336 347 360 16 56 59 63 342 352 16 22 25 8 10 26 359 10 352 337 255 324 328 314 306 299 292 286 288 290 288 280 275 275 286 277
304 313 315 323 326 327 329 329 332 331 335 349 5 19 57 176 307 347 356 12 16 24 15 21 10 351 305 316 326 342 317 300 294 283 278 269 291 298 282 286 279 282 277 276 278
287 306 312 315 322 325 327 327 326 328 334 349 18 71 53 135 350 355 1 360 1 359 13 358 12 14 342 324 345 304 300 291 218 353 325 4 276 254 357 330 324 271 273 278 272
279 294 308 307 314 323 328 328 326 326 337 344 50 94 360 213 353 11 350 328 347 346 349 337 16 7 322 302 273 268 244 355 345 354 340 346 297 18 347 334 330 331 353 349 318
270 289 303 305 314 325 328 331 331 331 350 352 108 92 111 300 23 323 345 332 312 333 353 355 22 290 261 334 358 80 317 334 329 353 331 359 316 329 322 346 352 353 339 329 325
256 279 299 306 317 327 330 338 335 327 24 78 91 138 151 208 294 326 322 334 306 303 304 175 260 267 211 22 349 316 327 310 323 325 343 306 293 321 330 10 360 352 352 325 319
251 270 295 302 316 328 331 3 357 349 54 253 58 300 100 308 201 13 334 317 289 252 287 158 300 65 17 354 322 303 282 308 315 319 323 360 16 28 6 3 0 351 348 338 338
245 267 287 286 304 324 311 180 245 216 263 280 230 274 281 354 253 135 31 310 241 279 327 194 247 66 312 276 310 302 307 309 299 333 106 343 17 353 8 352 357 3 345 352 9
247 262 271 270 292 301 355 256 194 229 260 142 203 185 152 75 353 86 46 33 282 295 273 282 358 20 320 301 326 316 199 257 243 309 95 332 92 7 340 349 360 3 353 15 22
240 252 256 253 283 295 301 327 346 89 6 142 187 183 76 83 152 258 35 90 227 308 333 274 73 315 318 294 17 311 125 321 319 316 323 28 295 24 356 341 355 356 5 10 19
239 231 232 210 196 207 262 311 26 96 318 71 132 181 190 280 309 222 346 132 284 320 320 298 360 343 298 41 351 260 328 296 92 285 236 357 289 10 5 345 331 337 349 2 29
243 221 213 214 219 225 206 131 87 47 249 117 127 163 203 175 149 316 234 309 265 287 233 263 332 273 321 307 262 278 281 240 219 220 141 284 89 28 8 338 325 334 344 0 25
233 213 208 206 208 192 171 99 40 178 2 198 184 198 240 130 158 300 269 171 314 343 225 228 205 134 262 303 122 356 320 339 265 339 4 344 52 62 355 341 337 359 8 17 27
219 210 205 208 200 176 150 60 165 175 206 156 155 162 241 131 122 135 241 226 155 325 299 314 285 349 15 51 333 310 327 81 306 341 319 45 12 343 59 100 70 58 30 24 21
206 204 205 199 187 170 132 128 222 198 164 160 135 195 6 184 279 176 151 354 37 35 305 345 93 138 68 351 349 351 57 355 300 33 337 105 107 164 41 52 56 49 41 31 26
196 193 217 193 180 162 94 255 234 293 97 182 184 172 169 229 197 157 134 54 68 28 332 52 296 73 121 205 214 208 332 275 281 347 332 137 102 110 86 41 58 46 51 36 31
190 170 216 186 167 161 198 229 248 215 194 175 198 150 217 149 196 171 125 150 197 153 261 331 116 244 214 36 31 315 65 309 244 144 291 224 142 97 106 82 87 78 61 53 43
171 151 177 165 147 186 196 193 230 174 201 239 298 241 197 163 178 198 225 99 140 271 254 62 37 277 32 120 151 314 344 281 275 239 163 266 196 124 125 124 120 104 86 79 69
158 121 165 168 187 206 176 244 243 171 192 191 212 211 201 177 176 194 144 88 136 243 328 142 77 313 291 157 194 231 123 285 277 265 237 230 200 137 137 136 132 123 109 82 70
149 135 158 198 235 210 146 199 217 213 252 185 187 149 155 199 204 145 148 138 194 222 173 41 94 247 265 34 18 302 289 242 280 293 278 234 151 177 178 158 151 152 131 98 79
168 186 175 175 222 205 174 166 155 172 216 207 206 213 176 189 183 196 179 118 191 198 201 232 193 228 286 293 280 264 274 277 254 259 244 329 186 191 186 168 168 164 139 109 85
157 150 165 163 155 176 189 204 176 164 153 212 181 201 208 177 176 196 164 156 175 170 202 168 150 97 284 265 248 265 251 254 252 246 260 269 281 168 173 163 161 164 158 139 119
181 165 170 171 147 165 209 189 191 148 202 188 182 172 205 202 99 90 86 94 131 162 198 150 139 111 263 332 321 305 228 219 205 200 199 206 219 149 160 162 168 169 167 161 141